Location: Bakov nad Jizerou
(50.4784°N, 14.9394°E)
Time: 06:20:45
(UTC+00:00)

Cosmos 1315 Rocket - Pass Details

Date: 16 June 2021
Orbit: 528 x 568 km, 81.2° (Epoch: 28 July)

Event Time Altitude Azimuth Distance (km) Brightness Sun altitude
Rises 20:18:02 0° 340° (NNW) 2,783 8.1 -7.8°
Reaches altitude 10° 20:20:22 10° 331° (NNW) 1,881 7.2 -8.1°
Maximum altitude 20:24:06 33° 267° (W) 969 4.4 -8.4°
Drops below altitude 10° 20:27:48 10° 203° (SSW) 1,860 5.2 -8.8°
Enters shadow 20:29:53 - 194° (SSW) 2,661 5.9 -8.9°
